Regional Weather Roundup
Issued by NWS Charleston, SC

Current Version | Previous Version | Text Only | Print | Product List | Glossary Off
Versions: 1 2 3 4 5 6 7 8 9 10 11 12 13 14 15 16 17 18 19 20 21 22 23 24 25 26 27 28 29 30 31 32 33 34 35 36 37 38 39 40 41 42 43 44 45 46 47 48 49 50

000
ASUS42 KCHS 050327
RWRCHS

REGIONAL WEATHER ROUNDUP
NATIONAL WEATHER SERVICE CHARLESTON SC
1100 PM EDT MON MAY 04 2015

NOTE: "FAIR" INDICATES FEW OR NO CLOUDS BELOW 12,000 FEET WITH NO
SIGNIFICANT WEATHER AND/OR OBSTRUCTIONS TO VISIBILITY.

NOT ALL STATIONS ARE QUALITY CONTROLLED BY THE NATIONAL
WEATHER SERVICE. USE DATA WITH CAUTION...ESPECIALLY
DEWPOINT OBSERVATIONS.

SCZ027-030-031-034>040-042>050-050400-
...SOUTHEAST SOUTH CAROLINA...

CITY           SKY/WX    TMP DP  RH WIND       PRES   REMARKS
N CHARLESTON   PTCLDY    66  56  70 E3        30.33R
WATERFRONT PRK   N/A     70 N/A N/A E9          N/A
MOUNT PLEASANT FAIR      61  57  88 MISG      30.33S
PINOPOLIS      NOT AVBL
MONCKS CORNER  FAIR      61  55  82 CALM      30.33S
SUMMERVILLE    FAIR      59  59 100 CALM      30.34S
BEAUFORT MCAS  CLEAR     68  61  78 E6        30.31S
BEAUFORT ARPT  FAIR      64  63  94 CALM      30.31S
HILTON HEAD IS CLEAR     70  63  78 E3        30.32S
WALTERBORO     CLEAR     59  54  82 CALM      30.34R
ALLENDALE      FAIR      61  55  82 CALM      30.32R

...SOUTHERN MIDLANDS AND PEE DEE...

CITY           SKY/WX    TMP DP  RH WIND       PRES   REMARKS
GEORGETOWN     NOT AVBL
KINGSTREE      NOT AVBL
ORANGEBURG     CLEAR     64  54  69 S3        30.33R
BARNWELL       FAIR      63  57  82 CALM      30.33S
AIKEN          FAIR      61  52  72 S3        30.36R
MANNING        FAIR      59  54  82 CALM      30.34R
COLUMBIA       CLEAR     69  55  60 CALM      30.32R
SUMTER         CLEAR     66  55  68 S2        30.32R
FLORENCE       CLEAR     65  55  70 SE3       30.34R
MYRTLE BEACH     N/A     70  57  64 SE6       30.36R
N MYRTLE BEACH CLEAR     69  57  65 S3        30.34R

$$

GAZ063-065-086>088-099>101-113>116-118-119-134>141-150-050400-
...SOUTHEAST GEORGIA...

CITY           SKY/WX    TMP DP  RH WIND       PRES   REMARKS
SAVANNAH ARPT  PTCLDY    66  57  72 E3        30.31R
HUNTER AAF     CLEAR     66  61  83 CALM      30.28S
FORT STEWART   CLEAR     60  56  87 CALM      30.29
STATESBORO       N/A     58  56  90 CALM      30.32R
SYLVANIA       CLEAR     61  58  89 CALM      30.32S
CLAXTON        FAIR      59  57  94 CALM      30.31S

...CSRA...CENTRAL AND FAR SOUTHEAST GEORGIA...

CITY           SKY/WX    TMP DP  RH WIND       PRES   REMARKS
THOMSON        CLEAR     67  59  76 CALM      30.36R
AUGUSTA-BUSH   CLEAR     62  56  80 SE5       30.31R
AUGUSTA-DANIEL CLEAR     69  54  58 SE6       30.32R
SWAINSBORO     NOT AVBL
VIDALIA        CLEAR     64  55  72 SE3       30.31R
EASTMAN        FAIR      67  58  74 CALM      30.32S
HAZLEHURST     FAIR      67  56  67 SE3       30.29R
ALMA           CLEAR     64  53  67 CALM      30.30R
WAYCROSS       CLEAR     63  59  86 E5        30.29S
JESUP          FAIR      63  59  88 CALM      30.30S
BAXLEY         FAIR      64  57  77 CALM      30.30R
BRUNSWICK      CLEAR     63  59  88 CALM      30.30S
SAINT SIMONS   PTCLDY    70  61  73 E8        30.29R

$$

SCZ027-028-034-036>038-045-046-048>050-GAZ119-141-050400-
...LAKE AND SUPPLEMENTAL COASTAL OBSERVATIONS...

STATION/POSITION TIME  TEMP    WIND        PRES    WAVE   SWELL
                       AIR SEA DIR/SP/G            HT/PER HT/PER/DIR
                 (UTC) (F)     (DEG/KT/KT) (MB)    (FT/S) (FT/S/D)
UPR LAKE MARION  NOT AVBL
WINYAH BAY       0245   71     140/  6     1026.0S
LAKE MURRAY      0200   71     170/  8/ 11 1025.4R
ACE BASIN NERRS  NOT AVBL
FORT PULASKI     0300   71 71   70/  9/ 10 1026.7R
SAPELO ISLAND    0300   66      60/  3     1026.0R

$$

ANZ835-935-AMZ111-154-330-350-352-354-370-450-454-472-050400-
...C-MAN AND BUOY OBSERVATIONS...

STATION/POSITION TIME  TEMP    WIND        PRES    WAVE   SWELL
                       AIR SEA DIR/SP/G            HT/PER HT/PER/DIR
                 (UTC) (F)     (DEG/KT/KT) (MB)    (FT/S) (FT/S/D)
BUOY 41004       0250   73 74  100/ 14/ 17 1026.3R   4/ 5   2/ 8
BUOY 41008       0250   71 71   60/  4/  6 1025.9R   3/ 5   3/100/ 5
FOLLY BEACH CMAN 0300   71     110/  9/ 10 1026.8R
CAPERS NEARSHORE 0208   71     130/ 10/ 14 1026.6R
FRIPP NEARSHORE  NOT AVBL


STATION/POSITION TIME  TEMP    WIND        PRES    WAVE   SWELL
                       AIR SEA DIR/SP/G            HT/PER HT/PER/DIR
                 (UTC) (F)     (DEG/KT/KT) (MB)    (FT/S) (FT/S/D)
5E ST. MARYS GA  0221      72                N/A     4/ 6   2/ 60/13
FRYING PAN BUOY  0250   74 72  130/ 12/ 14 1028.2S   3/ 9   2/ 70/ 9
BUOY 41025       0250   74 77  190/ 14/ 17 1027.7R   3/12   3/100/12
CAPE LOOKOUT NC  0300   68     180/  6/  6 1027.8R
BUOY 41002       0250   69 70  110/ 14/ 16 1027.8R   5/ 9   3/ 50/ 9
BUOY 41010       0220   74 78   90/ 19/ 25 1023.3R
ST AUGUSTINE FL  0300   72 72   90/  9/ 11 1025.1R


$$


USA.gov is the U.S. government's official web portal to all federal, state and local government web resources and services.